www.pogodaiklimat.ru

Погода и климат >> Архив погоды >> Россия >> Иркутская область >> Тырка


ПОГОДА в Тырке

  • Прогноз погоды в Тырке
  • Монитор погоды в Тырке

АРХИВ ПОГОДЫ в Тырке

Время (UTC), дата Ветер
(напр.,м/с)
 
Видим.   Явления Облачность Т
(С)
Тd
(С)
f
(%)
Тe
(С)
Тes
(С)
Комфортность P
(гПа)
Po
(гПа)
Тmin
(С)
Tmax
(С)
R
(мм)
R24
(мм)
S
(см)
03 18.03 СВ 3 20 км слаб. ливневой снег 10/10 600 м
[Cb cap]
-2.9 -6.3 77 -8 -8 1012.4 933.2
06 18.03 СВ 3 20 км {ливн. осадки} 10/10 600 м
[Cb cap]
-2.0 -8.2 63 -7 -7 1012.9 933.8
09 18.03 СВ 3 20 км в посл. час ливневой снег 8/8 600 м
[Cb cap]
-2.6 -7.0 72 -7 -7 1016.8 935.4
12 18.03 СЗ 1 н/о {ливн. осадки} 6/6 600 м
[Cb cap]
-5.6 -11.2 65 -8 -8 1018.9 938.2 +2.1 0.9
15 18.03 С 1 н/о 6/5 600 м
[Cb cap Ac trans]
-6.5 -12.5 62 -9 -9 1021.1 940.0
18 18.03 ЮВ 1 н/о 4/0
[Ac trans]
-11.5 -13.5 85 -14 -14 1024.5 941.7
21 18.03 З 1 н/о 3/3 600 м
[Sc]
-18.2 -20.1 85 -21 -21 1028.2 943.0
00 19.03 СЗ 1 50 км 3/1 600 м
[Sc Ac trans Ci fib]
-19.8 -21.7 85 -23 -22 1030.6 944.6 -20.6 27
03 19.03 СВ 1 50 км 6/6 600 м
[Cu med, cong]
-7.5 -14.0 60 -10 -7 1027.1 945.3
06 19.03 СЗ 2 50 км 8/5 600 м
[Cu med, cong Ci fib]
-4.0 -16.6 37 -7 -4 1025.3 944.6
09 19.03 З 3 50 км осадки на расстоянии 9/8 600 м
[Cb cap Ci]
-3.9 -14.4 44 -9 -8 1024.5 943.9
12 19.03 штиль 0 н/о 3/1 600 м
[Sc diur, vesp Ci fib]
-8.5 -15.6 56 -9 -9 1026.8 944.7 -3.0
15 19.03 СЗ 1 н/о 10/8 600 м
[Cb cap Ci fib]
-12.2 -15.7 75 -14 -14 1028.9 945.5
18 19.03 СВ 1 н/о 6/5 600 м
[Cb cap Ci fib]
-11.1 -14.7 75 -13 -13 1028.8 945.7
21 19.03 штиль 0 н/о 4/0
[Cc]
-15.3 -16.3 92 -15 -15 1030.3 945.7
00 20.03 штиль 0 20 км 6/4 600 м
[Sc Ac trans Ci fib]
-19.4 -21.3 85 -19 -19 1032.3 946.4 -19.5 27
03 20.03 СВ 1 50 км 9/8 600 м
[Cu med, cong Ac trans]
-4.1 -8.7 70 -6 -5 1027.8 946.9
06 20.03 З 2 20 км в посл. час ливневой снег 9/9 600 м
[Cb cap]
-4.0 -11.3 57 -8 -7 1027.1 946.3
09 20.03 З 1 20 км {ливн. осадки} 8/8 600 м
[Cb cap]
-3.0 -12.2 49 -5 -4 1024.2 944.6
12 20.03 штиль 0 н/о {ливн. осадки} 8/4 600 м
[Sc diur, vesp Ci fib]
-6.2 -12.6 60 -7 -7 1028.5 946.9 -2.4 0.0
15 20.03 штиль 0 н/о 6/0
[Ac trans]
-12.7 -15.4 80 -13 -13 1030.4 947.7
18 20.03 З 1 н/о 9/0
[Ac lent]
-14.1 -16.1 85 -17 -17 1032.1 947.9
21 20.03 В 2 н/о 10/0
[As op]
-12.3 -13.6 90 -17 -17 1030.1 946.5
00 21.03 В 1 20 км осадки на расстоянии 10/8 600 м
[Cb cap As trans]
-11.5 -12.8 90 -14 -14 1029.5 946.3 -15.0 27
03 21.03 З 2 20 км осадки на расстоянии 10/8 600 м
[Cb cap Cs]
-5.8 -11.0 67 -10 -9 1027.4 946.1
06 21.03 З 5 10 км осадки на расстоянии 10/10 600 м
[Cb cap]
-4.8 -10.5 64 -12 -12 1025.9 945.0
09 21.03 З 4 20 км осадки на расстоянии 10/10 600 м
[Cb cap]
-4.5 -11.0 60 -10 -10 1024.9 944.2
12 21.03 штиль 0 н/о {ливн. осадки} 10/5 600 м
[Cb cap Ci fib]
-7.7 -9.9 84 -8 -8 1027.6 945.7 -4.1 0.5
15 21.03 СЗ 1 н/о 10/8 600 м
[Cb cap Ci fib]
-9.1 -11.1 85 -11 -11 1030.0 947.5
18 21.03 СЗ 1 н/о 9/9 600 м
[Cb cap]
-13.0 -14.3 90 -15 -15 1033.1 949.2
21 21.03 СВ 1 н/о 4/4 600 м
[Sc diur, vesp Ac trans]
-18.1 -20.0 85 -21 -21 1036.0 950.2
00 22.03 З 1 50 км 3/3 600 м
[Sc diur, vesp Ac trans]
-18.0 -19.9 85 -21 -20 1037.3 951.4 -20.0 27
03 22.03 В 2 50 км 3/3 600 м
[Cu med, cong]
-6.1 -11.9 63 -10 -6 1033.2 951.3
06 22.03 ЮЗ 2 50 км 6/3 600 м
[Cu med, cong Ci fib]
-3.0 -12.7 47 -6 -2 1030.3 949.5
09 22.03 Ю 3 20 км 4/0
[Ci fib]
-1.8 -13.9 39 -6 -4 1038.6 947.5
12 22.03 ЮВ 2 н/о 1/0
[Ci fib]
-4.7 -13.5 50 -8 -8 1027.8 946.2 -1.8
15 22.03 З 1 н/о 6/0
[Cs]
-12.8 -16.3 75 -15 -15 1027.4 944.0
18 22.03 СЗ 1 н/о 10/0
[Cs]
-15.4 -18.3 78 -18 -18 1025.5 941.1
21 22.03 З 1 н/о 10/5 600 м
[Sc Ac As]
-15.6 -17.5 85 -18 -18 1022.5 938.6
00 23.03 З 1 50 км 10/6 600 м
[Sc Ac As]
-11.7 -14.5 80 -14 -14 1018.7 936.3 -17.4 27
03 23.03 ЮВ 4 50 км 8/6 600 м
[Cb calv Ac trans Ci fib]
-2.0 -11.0 50 -7 -6 1014.4 935.2
06 23.03 З 6
{11}
50 км осадки на расстоянии 9/9 600 м
[Cb cap]
+2.0 -8.4 46 -3 -3 1012.4 934.4
09 23.03 СЗ 4
{10}
50 км 9/8 600 м
[Cb cap Ci fib]
+1.5 -9.1 45 -3 -3 1011.8 933.7
12 23.03 СЗ 1 н/о 9/6 600 м
[Cb cap Ac trans Ci fib]
-1.1 -7.7 61 -3 -3 1013.1 934.3 +2.0
15 23.03 В 1 н/о 8/3 600 м
[Sc diur, vesp Ci fib]
-6.0 -10.4 71 -8 -8 1015.3 934.8
18 23.03 ЮЗ 1 н/о 10/0
[Cs]
-8.7 -11.6 79 -11 -11 1015.5 934.3
21 23.03 СЗ 1 н/о 9/0
[Ac trans Ci fib]
-12.7 -14.0 90 -15 -15 1017.9 934.4
00 24.03 З 1 20 км 9/9 1000 м
[Cb cap]
-10.4 -12.4 85 -13 -13 1016.8 935.0 -14.9 27
03 24.03 СЗ 5 50 км 6/6 1000 м
[Cu med, cong]
-2.9 -11.5 51 -9 -8 1015.2 935.6
06 24.03 З 6 50 км 8/8 1000 м
[Cb cap]
-2.2 -12.9 44 -9 -8 1014.5 935.2
09 24.03 СЗ 3 20 км в посл. час ливневой снег 9/9 600 м
[Cb cap]
-2.4 -9.7 57 -7 -7 1015.8 936.4
12 24.03 С 2 н/о {ливн. осадки} 6/6 600 м
[Sc diur, vesp]
-5.0 -7.8 81 -9 -9 1018.2 937.8 -0.6 0.0
15 24.03 штиль 0 н/о ясно -11.2 -15.6 70 -11 -11 1021.4 938.9
18 24.03 штиль 0 н/о ясно -17.7 -19.6 85 -18 -18 1024.1 939.4
21 24.03 штиль 0 н/о 6/0
[Ci fib]
-22.2 -24.1 84 -22 -22 1025.2 938.9

 

Местоположение метеостанции Тырка (Иркутская область, Россия): широта 54.48 долгота 107.00 высота над уровнем моря 651 м.

В архиве по умолчанию представлена погода в Тырке за последнюю неделю. Архивные данные за месяц целиком и за предыдущие месяцы, начиная с января 2011 года, Вы можете получить, выбрав интересующий диапазон дат из раскрывающегося списка и нажав кнопку "Ввод!".


*Определитесь, кто Вы:
робот инопланетянин человек

Внимание! Время в таблицах - всемирное. Для получения местного времени необходимо прибавить поправку, которая равна 8 ч.

Смотрите также архив погоды в соседних городах и на ближайших метеорологических станциях:

Погода в Караме (Иркутская область, Россия) (84 км)
Погода в Качуге (Иркутская область, Россия) (91 км)
Погода в Солнечной (Иркутская область, Россия) (93 км)
Погода на Большом Ушканьем Острове (Бурятия, Россия) (120 км)
Погода в Жигалове (Иркутская область, Россия) (127 км)
Погода в Узуре (Иркутская область, Россия) (137 км)
Погода в Худжире (Иркутская область, Россия) (144 км)
Погода в Баргузинском Заповеднике (Бурятия, Россия) (163 км)
Погода в Усть-Баргузине (Бурятия, Россия) (176 км)
Погода в Даване (Бурятия, Россия) (182 км)

Пояснения к столбцам:

Ветер - указаны скорость ветра в м/с - средняя за 10 мин, порывы в срок и между сроками (в фигурных скобках) и направление, откуда дует ветер: С - северный, СВ - северо-восточный, В - восточный, ЮВ - юго-восточный, Ю - южный, ЮЗ - юго-западный, З - западный, СЗ - северо-западный.
Видимость - горизонтальная дальность видимости в метрах или километрах. При видимости от 1 до 10 км при отсутствии осадков обычно наблюдается дымка, при ухудшении видимости до 1 км и менее - туман. В сухую погоду видимость может ухудшаться дымом, пылью или мглою.
Явления - указаны атмосферные явления, наблюдавшиеся в срок или в последний час перед сроком; фигурными скобками обозначены явления, наблюдавшиеся между сроками (за 1-3 часа до срока); квадратными скобками обозначены град или гололедные отложения с указанием их диаметра в мм.
Облачность - указаны через наклонную черту общая и нижняя облачность в баллах и высота нижней границы облаков в метрах; квадратными скобками обозначены формы облаков: Ci - перистые, Cs - перисто-слоистые, Cc - перисто-кучевые, Ac - высококучевые, As - высокослоистые, Sc - слоисто-кучевые, Ns - слоисто-дождевые, Cu - кучевые, Cb - кучево-дождевые. Подробнее классификацию облаков см. в Атласе облаков (PDF).
T - Температура воздуха - температура, измеренная на высоте 2 м над землей.
Td - Температура точки росы - температура, при понижении до которой содержащийся в воздухе водяной пар достигнет насыщения.
f - Относительная влажность воздуха - влажноcть воздуха, измеренная на высоте 2 м над землей.
Te - Эффективная температура - температура, которую ощущает одетый по сезону человек в тени. Характеристика душности погоды. При расчете учитывается влияние влажности воздуха и скорости ветра на теплоощущения человека.
Tes - Эффективная температура на солнце - температура, которую ощущает человек, с поправкой на солнечный нагрев. Характеристика знойности погоды. Зависит от высоты солнца над горизонтом, облачности и скорости ветра. Ночью, в пасмурную погоду, а также при ветре 12 м/с и более поправка равна нулю.
P - Атмосферное давление - приведенное к уровню моря атмосферное давление.
Po - Атмосферное давление - измеренное на уровне метеостанции атмосферное давление.
Tmin - Минимальная температура - минимум температуры воздуха на высоте 2 м над землей.
Tmax - Максимальная температура - максимум температуры воздуха на высоте 2 м над землей.
R - Количество осадков - Количество выпавших осадков за период времени, мм. При наведении курсора мыши на число - период времени, за который выпало указанное количество осадков.
R24 - Количество осадков - Количество выпавших осадков за 24 часа, мм.
S - Снежный покров - Высота снежного покрова, см. При наведении курсора мыши на число - состояние снежного покрова и степень покрытия местности в баллах.